Find Yixian-A (R)

NORAD ID: 66999 Int'l Des: NNA 2025-292 Owner: ZHONG Country: CN operational
LEOCIRCULARRETROGRADESSO

現在のビュー

3D地球を読み込み中...

Yixian-A (R)について

説明を読み込み中...

次回通過

Passes for default location (London). Set your location on the main map for personalized predictions.

高度履歴

Loading altitude history...

軌道要素

1 66999U 25292G 26146.47175507 .00005332 00000-0 36326-3 0 9990
2 66999 97.6368 222.5992 0017319 85.9549 274.3657 15.06570485 25183
Epoch: May 26, 2026 • Age: 11 hours

現在のステータス

高度 572.5 km
速度 7.57 km/s
衛星直下点 -46.30°S, 12.48°E
打ち上げ日 Dec 10, 2025
運用期間 0.4 years
タイプ other

技術仕様

分類 Payload
質量 5.00 kg
乾燥質量 5.00 kg
総質量 5.00 kg
長さ 0.30 m
直径 0.10 m
スパン 0.30 m
形状 Box+2 pan
製造者 ZHONG
バスタイプ Cubesat 3U
フェーズステータス In Orbit
所有者/国 ZHONG/CN

Most Searched